Location: Poigny-la-Forêt
(48.6876°N, 1.7701°E)
Time: 18:37:11
(UTC+02:00)

ISS - Pass Details

Date: 22 March 2019
Orbit: 408 x 410 km, 51.6° (Epoch: 24 April)

Event Time Altitude Azimuth Distance (km) Brightness Sun altitude
Rises 19:30:53 0° 188° (S) 2,323 0.0 -4.6°
Reaches altitude 10° 19:34:27 10° 147° (SSE) 1,468 -1.4 -5.1°
Maximum altitude 19:35:11 11° 134° (SE) 1,435 -1.5 -5.3°
Drops below altitude 10° 19:35:55 10° 121° (ESE) 1,470 -1.6 -5.4°
Enters shadow 19:37:14 - 101° (E) 1,682 -1.4 -5.6°
